TimeEDT,TemperatureF,Dew PointF,Humidity,Sea Level PressureIn,VisibilityMPH,Wind Direction,Wind SpeedMPH,Gust SpeedMPH,PrecipitationIn,Events,Conditions,WindDirDegrees,DateUTC
12:54 AM,45.0,39.0,80,29.82,10.0,WSW,8.1,-,N/A,,Clear,240,2013-04-01 04:54:00
2:54 AM,45.0,37.9,76,29.83,10.0,WNW,8.1,-,N/A,,Clear,290,2013-04-01 06:54:00
3:54 AM,43.0,32.0,65,29.84,10.0,WNW,11.5,-,N/A,,Clear,290,2013-04-01 07:54:00
4:54 AM,41.0,32.0,70,29.87,10.0,WNW,9.2,-,N/A,,Clear,290,2013-04-01 08:54:00
5:31 AM,39.2,32.0,75,29.86,10.0,NNW,5.8,-,N/A,,Mostly Cloudy,330,2013-04-01 09:31:00
5:54 AM,39.9,30.9,70,29.92,9.0,NW,9.2,-,N/A,,Overcast,320,2013-04-01 09:54:00
6:06 AM,39.2,30.2,70,29.88,9.0,NW,15.0,-,N/A,,Overcast,320,2013-04-01 10:06:00
6:54 AM,37.9,28.9,70,29.95,10.0,NW,12.7,-,N/A,,Overcast,320,2013-04-01 10:54:00
7:54 AM,37.0,28.0,70,29.99,9.0,NW,9.2,-,N/A,,Overcast,320,2013-04-01 11:54:00
8:51 AM,35.6,28.4,75,29.97,2.5,NNW,13.8,23.0,0.00,Snow,Light Snow,340,2013-04-01 12:51:00
8:54 AM,35.1,28.9,78,30.02,3.0,North,11.5,23.0,0.00,Snow,Light Snow,350,2013-04-01 12:54:00
9:03 AM,33.8,30.2,87,29.98,1.5,NW,11.5,-,0.00,Snow,Light Snow,320,2013-04-01 13:03:00
9:22 AM,33.8,32.0,93,29.98,3.0,NW,6.9,-,0.00,Snow,Light Snow,320,2013-04-01 13:22:00
9:37 AM,35.6,30.2,81,29.98,10.0,NW,6.9,-,0.00,,Overcast,310,2013-04-01 13:37:00
9:54 AM,37.0,30.9,79,30.04,10.0,WNW,8.1,-,0.00,,Overcast,300,2013-04-01 13:54:00
10:42 AM,35.6,28.4,75,29.99,9.0,North,11.5,-,0.00,,Overcast,360,2013-04-01 14:42:00
10:54 AM,36.0,28.9,76,30.05,7.0,NNW,10.4,-,0.00,Snow,Light Snow,340,2013-04-01 14:54:00
11:41 AM,39.2,26.6,61,30.01,10.0,North,11.5,16.1,0.00,,Mostly Cloudy,360,2013-04-01 15:41:00
11:54 AM,41.0,27.0,57,30.06,10.0,NNW,13.8,18.4,0.00,,Mostly Cloudy,340,2013-04-01 15:54:00
12:54 PM,43.0,21.0,42,30.07,10.0,NW,10.4,23.0,N/A,,Scattered Clouds,310,2013-04-01 16:54:00
1:54 PM,45.0,19.9,37,30.07,10.0,WNW,17.3,20.7,N/A,,Scattered Clouds,290,2013-04-01 17:54:00
2:54 PM,44.1,21.0,40,30.06,10.0,NNW,13.8,23.0,N/A,,Mostly Cloudy,340,2013-04-01 18:54:00
3:03 PM,42.8,17.6,36,30.02,10.0,NNW,13.8,23.0,N/A,,Mostly Cloudy,330,2013-04-01 19:03:00
5:54 PM,43.0,19.0,38,30.08,10.0,WNW,11.5,20.7,N/A,,Mostly Cloudy,300,2013-04-01 21:54:00
6:54 PM,42.1,19.0,40,30.09,10.0,NW,10.4,-,N/A,,Overcast,310,2013-04-01 22:54:00
7:54 PM,39.9,17.1,40,30.11,10.0,WNW,11.5,-,N/A,,Clear,300,2013-04-01 23:54:00
8:54 PM,37.9,17.1,43,30.13,10.0,WNW,6.9,-,N/A,,Scattered Clouds,300,2013-04-02 00:54:00
9:54 PM,36.0,18.0,48,30.14,10.0,WNW,5.8,-,N/A,,Partly Cloudy,300,2013-04-02 01:54:00
10:54 PM,35.1,18.0,50,30.16,10.0,NW,4.6,-,N/A,,Clear,320,2013-04-02 02:54:00
11:54 PM,33.1,18.0,54,30.17,10.0,NNW,4.6,-,N/A,,Clear,340,2013-04-02 03:54:00